UIIIUIBB

Guest
Details From UIII - Irkutsk
To UIBB - Bratsk
Flight Number -
Tags Generated
Created
Modified
Stats Distance 264 nm / 489 km
Max Altitude 0 ft / 0 m
Waypoints 3
Social Downloads 3
Likes 0
Share VATSIM

Download

Looking for another format? Having issues loading an existing format? Contact us
Advertisement - Login to hide

Notes

Generated

Route

UIII BRT UIBB

ID Type Via Altitude Latitude Longitude Leg Dist Tot Dist Heading (true) Name
O UIII APT - 0 ft / 0 m 52.27217˚ 104.37436˚ - 0 nm - -
BRT VOR - 0 ft / 0 m 56.37167˚ 101.68667˚ 263 nm 263 nm 340° / 338° BRATSK VOR-DME
O UIBB APT - 0 ft / 0 m 56.37652˚ 101.67514˚ 0 nm 264 nm 307° / 307° -

Altitude Profile

Advertisement - Login to hide

Weather


0- 5 10 15 20 25 30 35+ Temperature / ° C

Clouds and Precipitation
Forecast for 2017-12-14 18:00 UTC. Updated 2 minutes ago

Ground ~20,000 ft ~40,000 ft Winds

UIII

Details ICAO UIII (IKT)
Name Irkutsk
Region Russia
Timezone Asia/Irkutsk (UTC+8.0)
Stats Elevation 1,675 ft / 511 m (AMSL)
Location 52.266437° 104.395694°
Runways 1
Magnetic Variation 3.761° W

METAR

UIII 141500Z 32007MPS 5000 -SHSN DRSN BKN033CB M14/M18 Q1037 R30/490345 NOSIG RMK QFE732/0977

Decode

TAF

TAF UIII 141400Z 1415/1515 30008MPS 3100 -SHSN BKN015CB TEMPO 1415/1512 0900 +SHSN DRSN VV006

Decode

Departure Runways

ID Width Length Bearing (true) Bearing (mag) Surface Threshold Offset Overrun Length
12 148 ft / 45 m 10,408 ft / 3,172 m 113.68° 117.44° Concrete 1,312 ft / 400 m 266 ft / 81 m
30 148 ft / 45 m 10,408 ft / 3,172 m 293.72° 297.48° Concrete 1,178 ft / 359 m 1,316 ft / 401 m

UIBB

Details ICAO UIBB (BTK)
Name BRATSK
Region Russia
Timezone Asia/Irkutsk (UTC+8.0)
Stats Elevation 1,610 ft / 491 m (AMSL)
Location 56.370157° 101.702949°
Runways 2
Magnetic Variation 2.056° W

METAR

UIBB 141500Z 27002MPS 230V290 9999 -SHSN SCT022CB M22/M24 Q1035 R30/490137 NOSIG RMK QFE732/0977

Decode

TAF

TAF UIBB 141400Z 1415/1515 27005MPS 3100 -SHSN BKN011CB

Decode

Destination Runways

ID Width Length Bearing (true) Bearing (mag) Surface Threshold Offset Overrun Length
12 197 ft / 60 m 10,335 ft / 3,150 m 114.88° 116.94° Concrete 0 ft / 0 m 246 ft / 75 m
12L 246 ft / 75 m 6,568 ft / 2,002 m 114.60° 116.66° Grass 0 ft / 0 m 0 ft / 0 m
30 197 ft / 60 m 10,335 ft / 3,150 m 294.92° 296.98° Concrete 0 ft / 0 m 246 ft / 75 m
30R 246 ft / 75 m 6,568 ft / 2,002 m 294.62° 296.68° Grass 0 ft / 0 m 0 ft / 0 m

Approach Navaids

Runway Type Ident Frequency Range Bearing (true) Bearing (mag) Slope Elevation
30 Localiser IBS 110.30 MHz 18 nm / 33 km 294.98° 297.04° - 1,610 ft / 491 m (AMSL)
30 Glidescope IBS 110.30 MHz 10 nm / 19 km 295.00° 297.06° 3.00° 1,610 ft / 491 m (AMSL)

Popular Alternatives